This is the latest recevied weather packets stored in our database for station/object IK2ILW-4. If no packets are shown the sender has not sent any weather packets the latest 1 day(s).
| Time | Temp. | Humidity | Pressure | Rain* | Wind** | Luminosity | Snow |
|---|---|---|---|---|---|---|---|
| 1778057554 | 5° C | 98% | 1010.5 hPa | 10.67 mm | - | 30 W/m² | - |
| 1778056971 | 5.56° C | 98% | 1010.5 hPa | 9.91 mm | - | 30 W/m² | - |
| 1778056667 | 5.56° C | 98% | 1010.5 hPa | 9.91 mm | - | 40 W/m² | - |
| 1778056364 | 5.56° C | 98% | 1010.5 hPa | 9.91 mm | - | 76 W/m² | - |
| 1778055760 | 5.56° C | 98% | 1010.5 hPa | 9.91 mm | - | 90 W/m² | - |
| 1778055156 | 6.11° C | 98% | 1010.5 hPa | 9.91 mm | - | 272 W/m² | - |
| 1778054262 | 5.56° C | 98% | 1010.5 hPa | 9.91 mm | - | 276 W/m² | - |
| 1778053958 | 5.56° C | 98% | 1010.5 hPa | 9.91 mm | - | 213 W/m² | - |
| 1778053658 | 5.56° C | 98% | 1010.5 hPa | 9.91 mm | - | 151 W/m² | - |
| 1778053355 | 5.56° C | 98% | 1010.6 hPa | 9.91 mm | - | 128 W/m² | - |
| 1778052770 | 5.56° C | 98% | 1010.6 hPa | 9.91 mm | - | 109 W/m² | - |
| 1778052164 | 5.56° C | 98% | 1010.6 hPa | 9.91 mm | - | 113 W/m² | - |
| 1778050972 | 5.56° C | 98% | 1010.6 hPa | 9.91 mm | - | 67 W/m² | - |
| 1778050352 | 5.56° C | 98% | 1011 hPa | 9.91 mm | - | 65 W/m² | - |
| 1778049462 | 5.56° C | 98% | 1011 hPa | 9.65 mm | - | 25 W/m² | - |
| 1778048858 | 5.56° C | 98% | 1011 hPa | 9.65 mm | - | 19 W/m² | - |
| 1778047665 | 5.56° C | 98% | 1011 hPa | 9.65 mm | - | 25 W/m² | - |
| 1778047061 | 5.56° C | 98% | 1011.5 hPa | 9.65 mm | - | 40 W/m² | - |
| 1778046760 | 5.56° C | 98% | 1011.5 hPa | 9.4 mm | - | 33 W/m² | - |
| 1778045862 | 5.56° C | 98% | 1011.3 hPa | 8.64 mm | - | 12 W/m² | - |
| 1778045254 | 6.11° C | 98% | 1011.1 hPa | 7.87 mm | - | 5 W/m² | - |
| 1778044969 | 6.11° C | 98% | 1011.1 hPa | 7.62 mm | - | 0 W/m² | - |
| 1778044361 | 6.11° C | 98% | 1011.1 hPa | 7.11 mm | - | 5 W/m² | - |
| 1778044057 | 6.11° C | 98% | 1011.1 hPa | 6.86 mm | - | 11 W/m² | - |
| 1778043453 | 6.11° C | 98% | 1011.5 hPa | 6.1 mm | - | 9 W/m² | - |
* Rain since midnight (hover to see other rain measurements)
** Current wind speed in m/s (hover to see current wind gust speed)